Time,TemperatureF,DewpointF,PressureIn,WindDirection,WindDirectionDegrees,WindSpeedMPH,WindSpeedGustMPH,Humidity,HourlyPrecipIn,Conditions,Clouds,dailyrainin,SoftwareType,DateUTC
2013-01-13 09:23:00,23.0,14.0,29.82,NW,323,6.0,11.0,67,0.00,,,0.00,,2013-01-13 15:23:00,
2013-01-13 09:33:00,23.0,14.0,29.82,NW,317,6.0,10.0,67,0.00,,,0.00,,2013-01-13 15:33:00,
2013-01-13 09:43:00,23.0,14.0,29.82,NW,317,6.0,10.0,67,0.00,,,0.00,,2013-01-13 15:43:00,
2013-01-13 09:52:00,22.0,13.0,29.83,NW,318,7.0,14.0,68,0.00,,,0.00,,2013-01-13 15:52:00,
2013-01-13 10:03:00,22.0,13.0,29.83,NW,317,7.0,16.0,67,0.00,,,0.00,,2013-01-13 16:03:00,
2013-01-13 10:12:00,22.0,13.0,29.83,NW,317,7.0,16.0,67,0.00,,,0.00,,2013-01-13 16:12:00,
2013-01-13 10:23:00,22.0,13.0,29.82,NW,324,7.0,14.0,67,0.00,,,0.00,,2013-01-13 16:23:00,
2013-01-13 10:33:00,22.0,13.0,29.84,NW,316,7.0,16.0,67,0.00,,,0.00,,2013-01-13 16:33:00,
2013-01-13 10:42:00,22.0,13.0,29.84,NW,316,7.0,16.0,67,0.00,,,0.00,,2013-01-13 16:42:00,
2013-01-13 10:52:00,22.0,13.0,29.84,NW,305,7.0,12.0,67,0.00,,,0.00,,2013-01-13 16:52:00,
2013-01-13 11:03:00,22.0,12.0,29.83,NNW,330,9.0,13.0,66,0.00,,,0.00,,2013-01-13 17:03:00,
2013-01-13 11:12:00,22.0,12.0,29.83,NNW,330,9.0,13.0,66,0.00,,,0.00,,2013-01-13 17:12:00,
2013-01-13 11:22:00,22.0,13.0,29.80,NNW,333,7.0,13.0,67,0.00,,,0.00,,2013-01-13 17:22:00,
2013-01-13 11:33:00,22.0,13.0,29.80,NNW,336,8.0,13.0,67,0.00,,,0.00,,2013-01-13 17:33:00,
2013-01-13 11:42:00,22.0,13.0,29.80,NNW,336,8.0,13.0,67,0.00,,,0.00,,2013-01-13 17:42:00,
2013-01-13 11:53:00,22.0,13.0,29.79,NNW,336,9.0,14.0,67,0.00,,,0.00,,2013-01-13 17:53:00,
2013-01-13 12:03:00,23.0,14.0,29.76,NNW,334,7.0,13.0,68,0.00,,,0.00,,2013-01-13 18:03:00,
2013-01-13 12:12:00,23.0,14.0,29.76,NNW,334,7.0,13.0,68,0.00,,,0.00,,2013-01-13 18:12:00,
2013-01-13 12:23:00,24.0,14.0,29.76,NNW,333,6.0,13.0,66,0.00,,,0.00,,2013-01-13 18:23:00,
2013-01-13 12:33:00,23.0,13.0,29.76,NNW,340,6.0,10.0,66,0.00,,,0.00,,2013-01-13 18:33:00,
2013-01-13 12:42:00,23.0,13.0,29.76,NNW,340,6.0,10.0,66,0.00,,,0.00,,2013-01-13 18:42:00,
2013-01-13 12:53:00,23.0,14.0,29.79,NNW,337,7.0,11.0,67,0.00,,,0.00,,2013-01-13 18:53:00,
2013-01-13 13:03:00,23.0,13.0,29.79,NNW,337,5.0,8.0,66,0.00,,,0.00,,2013-01-13 19:03:00,
2013-01-13 13:12:00,23.0,13.0,29.79,NNW,337,5.0,8.0,66,0.00,,,0.00,,2013-01-13 19:12:00,
2013-01-13 13:22:00,24.0,14.0,29.79,NW,307,5.0,8.0,65,0.00,,,0.00,,2013-01-13 19:22:00,
2013-01-13 13:33:00,24.0,14.0,29.79,NW,321,6.0,13.0,65,0.00,,,0.00,,2013-01-13 19:33:00,
2013-01-13 13:42:00,24.0,14.0,29.79,NW,321,6.0,13.0,65,0.00,,,0.00,,2013-01-13 19:42:00,
2013-01-13 13:52:00,23.0,13.0,29.79,NW,310,6.0,12.0,65,0.00,,,0.00,,2013-01-13 19:52:00,
2013-01-13 14:03:00,23.0,13.0,29.80,NW,324,5.0,11.0,65,0.00,,,0.00,,2013-01-13 20:03:00,
2013-01-13 14:12:00,23.0,13.0,29.80,NW,324,5.0,11.0,65,0.00,,,0.00,,2013-01-13 20:12:00,
2013-01-13 14:22:00,24.0,14.0,29.79,NNW,328,7.0,13.0,64,0.00,,,0.00,,2013-01-13 20:22:00,
2013-01-13 14:33:00,24.0,14.0,29.79,NNW,331,7.0,13.0,65,0.00,,,0.00,,2013-01-13 20:33:00,
2013-01-13 14:43:00,24.0,14.0,29.79,NNW,331,7.0,13.0,65,0.00,,,0.00,,2013-01-13 20:43:00,
2013-01-13 14:53:00,24.0,14.0,29.80,NNW,332,7.0,12.0,64,0.00,,,0.00,,2013-01-13 20:53:00,
2013-01-13 15:03:00,24.0,14.0,29.80,NW,322,5.0,11.0,65,0.00,,,0.00,,2013-01-13 21:03:00,
2013-01-13 15:12:00,24.0,14.0,29.80,NW,322,5.0,11.0,65,0.00,,,0.00,,2013-01-13 21:12:00,
2013-01-13 15:23:00,24.0,14.0,29.80,NW,319,4.0,11.0,65,0.00,,,0.00,,2013-01-13 21:23:00,
2013-01-13 15:33:00,23.0,13.0,29.80,NW,319,5.0,8.0,65,0.00,,,0.00,,2013-01-13 21:33:00,
2013-01-13 15:43:00,23.0,13.0,29.80,NW,319,5.0,8.0,65,0.00,,,0.00,,2013-01-13 21:43:00,
2013-01-13 15:52:00,23.0,13.0,29.81,WNW,297,3.0,7.0,65,0.00,,,0.00,,2013-01-13 21:52:00,
2013-01-13 16:02:00,24.0,14.0,29.81,NW,320,3.0,7.0,64,0.00,,,0.00,,2013-01-13 22:02:00,
2013-01-13 16:12:00,24.0,14.0,29.81,NW,320,3.0,7.0,64,0.00,,,0.00,,2013-01-13 22:12:00,
2013-01-13 16:22:00,24.0,13.0,29.80,NW,321,4.0,8.0,63,0.00,,,0.00,,2013-01-13 22:22:00,
2013-01-13 16:33:00,23.0,13.0,29.80,WNW,285,3.0,7.0,64,0.00,,,0.00,,2013-01-13 22:33:00,
2013-01-13 16:43:00,23.0,13.0,29.80,WNW,285,3.0,7.0,64,0.00,,,0.00,,2013-01-13 22:43:00,
2013-01-13 16:52:00,23.0,13.0,29.80,WNW,287,4.0,7.0,64,0.00,,,0.00,,2013-01-13 22:52:00,
2013-01-13 17:02:00,23.0,13.0,29.79,NW,308,5.0,11.0,64,0.00,,,0.00,,2013-01-13 23:02:00,
2013-01-13 17:12:00,23.0,13.0,29.79,NW,308,5.0,11.0,64,0.00,,,0.00,,2013-01-13 23:12:00,
2013-01-13 17:22:00,23.0,13.0,29.79,WNW,290,6.0,11.0,64,0.00,,,0.00,,2013-01-13 23:22:00,
2013-01-13 17:33:00,23.0,13.0,29.79,WNW,282,7.0,13.0,64,0.00,,,0.00,,2013-01-13 23:33:00,
2013-01-13 17:42:00,23.0,13.0,29.79,WNW,282,7.0,13.0,64,0.00,,,0.00,,2013-01-13 23:42:00,
2013-01-13 17:53:00,23.0,13.0,29.79,West,279,6.0,12.0,64,0.00,,,0.00,,2013-01-13 23:53:00,
2013-01-13 18:02:00,23.0,13.0,29.80,West,274,7.0,12.0,64,0.00,,,0.00,,2013-01-14 00:02:00,
2013-01-13 18:12:00,23.0,13.0,29.80,West,274,7.0,12.0,64,0.00,,,0.00,,2013-01-14 00:12:00,
2013-01-13 18:22:00,23.0,13.0,29.80,West,274,9.0,17.0,64,0.00,,,0.00,,2013-01-14 00:22:00,
2013-01-13 18:33:00,22.0,12.0,29.82,WNW,284,10.0,20.0,64,0.00,,,0.00,,2013-01-14 00:33:00,
2013-01-13 18:43:00,22.0,12.0,29.82,WNW,284,10.0,20.0,64,0.00,,,0.00,,2013-01-14 00:43:00,
2013-01-13 18:52:00,22.0,12.0,29.83,WNW,291,9.0,17.0,65,0.00,,,0.00,,2013-01-14 00:52:00,
2013-01-13 19:03:00,22.0,12.0,29.83,WNW,296,9.0,16.0,65,0.00,,,0.00,,2013-01-14 01:03:00,
2013-01-13 19:12:00,22.0,12.0,29.83,WNW,296,9.0,16.0,65,0.00,,,0.00,,2013-01-14 01:12:00,
2013-01-13 19:22:00,21.0,12.0,29.83,WNW,282,11.0,21.0,67,0.00,,,0.00,,2013-01-14 01:22:00,
2013-01-13 19:32:00,21.0,12.0,29.84,WNW,291,10.0,17.0,68,0.00,,,0.00,,2013-01-14 01:32:00,
2013-01-13 19:42:00,21.0,12.0,29.84,WNW,291,10.0,17.0,68,0.00,,,0.00,,2013-01-14 01:42:00,
2013-01-13 19:52:00,21.0,12.0,29.84,WNW,287,11.0,17.0,68,0.00,,,0.00,,2013-01-14 01:52:00,
2013-01-13 20:02:00,20.0,11.0,29.84,WNW,297,10.0,18.0,69,0.00,,,0.00,,2013-01-14 02:02:00,
2013-01-13 20:12:00,20.0,11.0,29.85,WNW,300,12.0,21.0,68,0.00,,,0.00,,2013-01-14 02:12:00,
2013-01-13 20:22:00,20.0,11.0,29.85,WNW,300,12.0,21.0,68,0.00,,,0.00,,2013-01-14 02:22:00,
2013-01-13 20:32:00,20.0,11.0,29.85,WNW,295,12.0,21.0,67,0.00,,,0.00,,2013-01-14 02:32:00,
2013-01-13 20:42:00,20.0,11.0,29.85,WNW,295,12.0,21.0,67,0.00,,,0.00,,2013-01-14 02:42:00,
2013-01-13 20:53:00,20.0,11.0,29.85,WNW,295,10.0,18.0,67,0.00,,,0.00,,2013-01-14 02:53:00,
2013-01-13 21:02:00,20.0,11.0,29.85,WNW,295,10.0,18.0,67,0.00,,,0.00,,2013-01-14 03:02:00,
2013-01-13 21:12:00,20.0,11.0,29.85,WNW,295,10.0,18.0,67,0.00,,,0.00,,2013-01-14 03:12:00,
2013-01-13 21:22:00,19.0,10.0,29.87,WNW,293,11.0,20.0,67,0.00,,,0.00,,2013-01-14 03:22:00,
2013-01-13 21:32:00,19.0,10.0,29.87,WNW,293,11.0,20.0,67,0.00,,,0.00,,2013-01-14 03:32:00,
2013-01-13 21:42:00,19.0,10.0,29.87,WNW,293,11.0,20.0,67,0.00,,,0.00,,2013-01-14 03:42:00,
2013-01-13 21:52:00,19.0,10.0,29.87,WNW,293,11.0,20.0,67,0.00,,,0.00,,2013-01-14 03:52:00,